Location: Newark
(40.9833°N, 0.0333°W)
Time: 01:41:21
(UTC+00:00)

Altair - Pass Details

Date: 04 November 2020
Orbit: 1502 x 1682 km, 47.2° (Epoch: 02 December)

Event Time Altitude Azimuth Distance (km) Brightness Sun altitude
Rises 11:15:26 0° 293° (WNW) 4,775 9.8 33.0°
Reaches altitude 10° 11:19:18 10° 280° (W) 3,817 9.5 33.1°
Maximum altitude 11:26:21 23° 233° (SW) 2,950 9.7 33.3°
Drops below altitude 10° 11:33:35 10° 185° (S) 3,899 11.1 33.4°
Sets 11:37:38 0° 172° (S) 4,901 11.2 33.4°
